Flag for Russia Weather past 2 weeks in Murmansk, Russia

Now
57 °F

Partly sunny.


Feels Like: 55 °F
Forecast: 58 / 68 °F
Wind: 10 mph from South

Location: Murmansk Airport

Current Time: Jul 31, 2014 at 3:50:21 PM

Latest Report: Jul 31, 2014 at 3:00 PM


Visibility: N/A

Pressure: 29.59 "Hg

Humidity: 77%

Dew point: 50 °F

Location of MurmanskLocation

Historic Weather in Murmansk — Graph

°F

Murmansk temperature yesterday

Maximum temperature yesterday: 57 °F (at 6:00 PM)
Minimum temperature yesterday: 41 °F (at 5:00 AM)
Average temperature yesterday: 49 °F

Past Weeks' High & Low Weather Summary

 TemperatureHumidityPressure
High81 °F (Jul 21, 2:30 PM)94% (Jul 21, 4:00 AM)30.27 "Hg (Jul 21, 4:00 AM)
Low41 °F (Jul 30, 5:00 AM)32% (Jul 21, 2:00 PM)29.59 "Hg (Jul 31, 1:30 PM)
Average60 °F69%30.08 "Hg
* Reported Jul 16 2:00 PM — Jul 31 2:30 PM, Murmansk, Weather by CustomWeather, © 2014

Note: Actual official high and low records may vary slightly from our data, if they occured in-between our weather recording intervals... More about our weather records

Advertising

Murmansk weather history for previous 24 hours

 ConditionsComfort  
Time TempWeatherWind HumidityBarometerVisibility
2:30 PM
Jul 31
57 °FPartly sunny.8 mph77%29.59 "HgN/A
2:00 PM57 °FPartly sunny.10 mph77%29.59 "HgN/A
1:30 PM57 °FPartly sunny.8 mph77%29.59 "HgN/A
1:00 PM59 °FSprinkles. Partly sunny.8 mph72%29.62 "HgN/A
12:30 PM59 °FPartly sunny.10 mph72%29.62 "HgN/A
12:00 PM59 °FPartly sunny.10 mph72%29.62 "HgN/A
11:30 AM57 °FBroken clouds.8 mph77%29.65 "HgN/A
11:00 AM57 °FBroken clouds.8 mph77%29.65 "HgN/A
10:30 AM55 °FPartly sunny.10 mph77%29.68 "HgN/A
10:00 AM55 °FPartly sunny.8 mph77%29.68 "HgN/A
9:30 AM55 °FBroken clouds.10 mph77%29.68 "HgN/A
9:00 AM55 °FBroken clouds.13 mph77%29.71 "HgN/A
8:30 AM55 °FBroken clouds.8 mph77%29.71 "HgN/A
8:00 AM55 °FBroken clouds.10 mph77%29.71 "HgN/A
7:30 AM55 °FBroken clouds.8 mph77%29.74 "HgN/A
7:00 AM54 °FPartly sunny.6 mph82%29.74 "HgN/A
6:30 AM54 °FPartly sunny.8 mph82%29.77 "HgN/A
6:00 AM52 °FBroken clouds.6 mph82%29.77 "HgN/A
5:30 AM50 °FBroken clouds.3 mph88%29.80 "HgN/A
5:00 AM48 °FBroken clouds.6 mph87%29.80 "HgN/A
4:30 AM50 °FBroken clouds.8 mph88%29.80 "HgN/A
4:00 AM50 °FSunny.3 mph88%29.83 "Hg10 mi
3:30 AM50 °FClear.6 mph88%29.83 "Hg10 mi
3:00 AM50 °FClear.3 mph88%29.83 "Hg10 mi
2:30 AM52 °FClear.6 mph82%29.83 "Hg10 mi
2:00 AM52 °FPartly cloudy.6 mph82%29.83 "HgN/A
1:30 AM50 °FBroken clouds.6 mph88%29.83 "HgN/A
1:00 AM52 °FBroken clouds.3 mph82%29.86 "HgN/A
12:30 AM54 °FBroken clouds.6 mph77%29.86 "HgN/A
12:00 AM55 °FPartly sunny.6 mph72%29.86 "HgN/A
11:30 PM
Jul 30
55 °FBroken clouds.6 mph72%29.86 "HgN/A
11:00 PM55 °FBroken clouds.10 mph72%29.86 "HgN/A
10:30 PM55 °FBroken clouds.6 mph77%29.86 "HgN/A
9:30 PM57 °FBroken clouds.6 mph72%29.86 "HgN/A
9:00 PM57 °FBroken clouds.6 mph72%29.86 "HgN/A
8:30 PM57 °FBroken clouds.6 mph72%29.89 "HgN/A
8:00 PM57 °FPartly sunny.6 mph72%29.89 "HgN/A
7:00 PM57 °FPartly sunny.3 mph67%29.89 "HgN/A
6:30 PM57 °FPartly sunny.3 mph67%29.89 "HgN/A
6:00 PM57 °FPartly sunny.3 mph67%29.92 "HgN/A
5:30 PM55 °FPartly sunny.3 mph72%29.92 "HgN/A
5:00 PM55 °FPartly sunny.6 mph67%29.92 "HgN/A
4:30 PM55 °FPartly sunny.8 mph67%29.92 "HgN/A
4:00 PM55 °FPartly sunny.8 mph63%29.92 "HgN/A
3:30 PM55 °FPartly sunny.3 mph67%29.95 "HgN/A
3:00 PM54 °FPartly sunny.6 mph67%29.95 "HgN/A
Weather by CustomWeather, © 2014

See weather overviewHow to use our weather pages